• In Belgien
  • Länderverzeichnis
  • Für 7 Tage
  • Wassertemperatur
  • Satellitenkarten
  • Wetterkarte
  • Widgets
  • user-avatar
    Anmelden

    Stündliche Wetter Lüttich

    Heute, 18 August, Samstag

    Zeit Temperatur Niederschläge Wind Luftdruck Luftfeuchtigkeit
    00:00 +14°C° 0 mm 1 m/S 757 mmHg 80%
    01:00 +13°C° 0 mm 1 m/S 757 mmHg 81%
    02:00 +13°C° 0 mm 1 m/S 757 mmHg 82%
    03:00 +13°C° 0 mm 1 m/S 757 mmHg 83%
    04:00 +14°C° 0 mm 1 m/S 757 mmHg 82%
    05:00 +14°C° 0 mm 1 m/S 757 mmHg 80%
    06:00 +15°C° 0 mm 1 m/S 757 mmHg 79%
    07:00 +17°C° 0 mm 2 m/S 758 mmHg 72%
    08:00 +19°C° 0 mm 2 m/S 758 mmHg 65%
    09:00 +21°C° 0 mm 2 m/S 758 mmHg 58%
    10:00 +23°C° 0 mm 2 m/S 758 mmHg 54%
    11:00 +24°C° 0 mm 2 m/S 758 mmHg 50%
    12:00 +25°C° 0 mm 3 m/S 757 mmHg 46%
    13:00 +25°C° 0 mm 3 m/S 757 mmHg 48%
    14:00 +25°C° 0 mm 3 m/S 757 mmHg 50%
    15:00 +25°C° 0 mm 3 m/S 757 mmHg 51%
    16:00 +24°C° 0 mm 3 m/S 757 mmHg 58%
    17:00 +23°C° 0 mm 2 m/S 757 mmHg 64%
    18:00 +21°C° 0 mm 2 m/S 757 mmHg 71%
    19:00 +20°C° 0 mm 2 m/S 757 mmHg 76%
    20:00 +19°C° 0 mm 1 m/S 758 mmHg 82%
    21:00 +18°C° 0 mm 1 m/S 758 mmHg 87%
    22:00 +18°C° 0 mm 1 m/S 758 mmHg 89%
    23:00 +16°C° 0 mm 1 m/S 758 mmHg 90%

    Morgen, 19 August, Sonntag

    Zeit Temperatur Niederschläge Wind Luftdruck Luftfeuchtigkeit
    00:00 +16°C° 0 mm 1 m/S 758 mmHg 92%
    01:00 +15°C° 0 mm 1 m/S 758 mmHg 92%
    02:00 +15°C° 0 mm 1 m/S 758 mmHg 93%
    03:00 +15°C° 0 mm 1 m/S 758 mmHg 94%
    04:00 +15°C° 0 mm 1 m/S 758 mmHg 92%
    05:00 +16°C° 0 mm 1 m/S 758 mmHg 90%
    06:00 +18°C° 0 mm 1 m/S 758 mmHg 88%
    07:00 +19°C° 0 mm 1 m/S 758 mmHg 80%
    08:00 +20°C° 0 mm 2 m/S 758 mmHg 72%
    09:00 +23°C° 0 mm 2 m/S 758 mmHg 65%
    10:00 +24°C° 0 mm 2 m/S 757 mmHg 60%
    11:00 +26°C° 0 mm 2 m/S 757 mmHg 56%
    12:00 +27°C° 0 mm 2 m/S 757 mmHg 52%
    13:00 +27°C° 0 mm 3 m/S 756 mmHg 52%
    14:00 +27°C° 0 mm 3 m/S 756 mmHg 51%
    15:00 +28°C° 0 mm 3 m/S 756 mmHg 51%
    16:00 +27°C° 0 mm 2 m/S 756 mmHg 57%
    17:00 +26°C° 0 mm 2 m/S 755 mmHg 63%
    18:00 +25°C° 0 mm 2 m/S 755 mmHg 69%
    19:00 +23°C° 0 mm 1 m/S 756 mmHg 74%
    20:00 +22°C° 0 mm 1 m/S 756 mmHg 78%
    21:00 +21°C° 0 mm 1 m/S 756 mmHg 83%
    22:00 +20°C° 0 mm 1 m/S 756 mmHg 84%
    23:00 +18°C° 0 mm 2 m/S 756 mmHg 86%

    übermorgen, 20 August, Montag

    Zeit Temperatur Niederschläge Wind Luftdruck Luftfeuchtigkeit
    00:00 +18°C° 0 mm 2 m/S 755 mmHg 88%
    01:00 +17°C° 0 mm 2 m/S 755 mmHg 90%
    02:00 +17°C° 0 mm 2 m/S 755 mmHg 91%
    03:00 +16°C° 0 mm 2 m/S 755 mmHg 93%
    04:00 +16°C° 0 mm 2 m/S 755 mmHg 92%
    05:00 +17°C° 0 mm 2 m/S 755 mmHg 91%
    06:00 +17°C° 0 mm 2 m/S 755 mmHg 91%
    07:00 +18°C° 0 mm 2 m/S 755 mmHg 87%
    08:00 +20°C° 0 mm 2 m/S 755 mmHg 83%
    09:00 +21°C° 0 mm 3 m/S 756 mmHg 79%
    10:00 +21°C° 0 mm 3 m/S 756 mmHg 78%
    11:00 +22°C° 0 mm 3 m/S 756 mmHg 76%
    12:00 +24°C° 0 mm 3 m/S 755 mmHg 74%
    13:00 +24°C° 0 mm 3 m/S 755 mmHg 72%
    14:00 +25°C° 0 mm 3 m/S 755 mmHg 70%
    15:00 +25°C° 0 mm 3 m/S 755 mmHg 67%
    16:00 +25°C° 0 mm 3 m/S 755 mmHg 71%
    17:00 +24°C° 0 mm 2 m/S 755 mmHg 74%
    18:00 +23°C° 0 mm 2 m/S 755 mmHg 77%
    19:00 +21°C° 0 mm 2 m/S 755 mmHg 81%
    20:00 +20°C° 0 mm 1 m/S 756 mmHg 85%
    21:00 +19°C° 0 mm 1 m/S 756 mmHg 89%
    22:00 +19°C° 0 mm 1 m/S 756 mmHg 90%
    23:00 +18°C° 0 mm 1 m/S 756 mmHg 91%

    21 August, Dienstag

    Zeit Temperatur Niederschläge Wind Luftdruck Luftfeuchtigkeit
    00:00 +18°C° 0 mm 1 m/S 756 mmHg 92%
    01:00 +18°C° 0 mm 1 m/S 756 mmHg 93%
    02:00 +18°C° 0 mm 1 m/S 756 mmHg 94%
    03:00 +17°C° 0 mm 2 m/S 756 mmHg 95%
    04:00 +17°C° 0 mm 2 m/S 756 mmHg 93%
    05:00 +18°C° 0 mm 2 m/S 756 mmHg 92%
    06:00 +18°C° 0 mm 2 m/S 756 mmHg 90%
    07:00 +20°C° 0 mm 2 m/S 756 mmHg 83%
    08:00 +23°C° 0 mm 2 m/S 756 mmHg 76%
    09:00 +25°C° 0 mm 2 m/S 756 mmHg 69%
    10:00 +26°C° 0,1 mm 3 m/S 756 mmHg 65%
    11:00 +27°C° 0,1 mm 3 m/S 756 mmHg 62%
    12:00 +28°C° 0,1 mm 3 m/S 755 mmHg 59%
    13:00 +28°C° 0,1 mm 3 m/S 755 mmHg 59%
    14:00 +28°C° 0,1 mm 3 m/S 755 mmHg 58%
    15:00 +28°C° 0,1 mm 3 m/S 755 mmHg 58%
    16:00 +27°C° 0,1 mm 3 m/S 754 mmHg 64%
    17:00 +26°C° 0,1 mm 2 m/S 754 mmHg 69%
    18:00 +25°C° 0,1 mm 2 m/S 754 mmHg 75%
    19:00 +23°C° 0 mm 2 m/S 755 mmHg 79%
    20:00 +21°C° 0 mm 2 m/S 755 mmHg 84%
    21:00 +21°C° 0 mm 1 m/S 755 mmHg 89%
    22:00 +20°C° 0 mm 1 m/S 755 mmHg 90%
    23:00 +20°C° 0 mm 1 m/S 755 mmHg 92%

    22 August, Mittwoch

    Zeit Temperatur Niederschläge Wind Luftdruck Luftfeuchtigkeit
    00:00 +19°C° 0 mm 1 m/S 755 mmHg 93%
    01:00 +19°C° 0 mm 1 m/S 755 mmHg 93%
    02:00 +19°C° 0 mm 1 m/S 755 mmHg 94%
    03:00 +19°C° 0 mm 1 m/S 755 mmHg 94%
    04:00 +19°C° 0 mm 1 m/S 755 mmHg 93%
    05:00 +19°C° 0 mm 1 m/S 756 mmHg 92%
    06:00 +20°C° 0 mm 1 m/S 756 mmHg 92%
    07:00 +21°C° 0 mm 1 m/S 756 mmHg 85%
    08:00 +23°C° 0 mm 2 m/S 756 mmHg 78%
    09:00 +24°C° 0 mm 2 m/S 756 mmHg 70%
    10:00 +25°C° 0,1 mm 2 m/S 756 mmHg 66%
    11:00 +26°C° 0,1 mm 2 m/S 756 mmHg 61%
    12:00 +27°C° 0,1 mm 2 m/S 756 mmHg 56%
    13:00 +27°C° 0,1 mm 3 m/S 756 mmHg 54%
    14:00 +27°C° 0,1 mm 3 m/S 755 mmHg 52%
    15:00 +28°C° 0,1 mm 3 m/S 755 mmHg 51%
    16:00 +27°C° 0 mm 3 m/S 755 mmHg 55%
    17:00 +25°C° 0 mm 2 m/S 755 mmHg 59%
    18:00 +24°C° 0 mm 2 m/S 755 mmHg 64%
    19:00 +23°C° 0 mm 2 m/S 755 mmHg 67%
    20:00 +20°C° 0 mm 2 m/S 756 mmHg 69%
    21:00 +19°C° 0 mm 2 m/S 756 mmHg 72%
    22:00 +18°C° 0 mm 2 m/S 756 mmHg 73%
    23:00 +18°C° 0 mm 2 m/S 756 mmHg 74%

    23 August, Donnerstag

    Zeit Temperatur Niederschläge Wind Luftdruck Luftfeuchtigkeit
    00:00 +17°C° 0 mm 2 m/S 756 mmHg 75%
    01:00 +18°C° 0 mm 1 m/S 755 mmHg 76%
    02:00 +18°C° 0 mm 1 m/S 755 mmHg 76%
    03:00 +18°C° 0 mm 1 m/S 755 mmHg 77%
    04:00 +18°C° 0 mm 1 m/S 755 mmHg 76%
    05:00 +19°C° 0 mm 1 m/S 755 mmHg 75%
    06:00 +19°C° 0 mm 1 m/S 755 mmHg 74%
    07:00 +22°C° 0 mm 1 m/S 754 mmHg 67%
    08:00 +24°C° 0 mm 2 m/S 754 mmHg 60%
    09:00 +26°C° 0 mm 2 m/S 754 mmHg 54%
    10:00 +27°C° 0,1 mm 2 m/S 754 mmHg 52%
    11:00 +28°C° 0,1 mm 2 m/S 753 mmHg 50%
    12:00 +29°C° 0,1 mm 2 m/S 753 mmHg 48%
    13:00 +29°C° 0,4 mm 1 m/S 752 mmHg 51%
    14:00 +28°C° 0,4 mm 1 m/S 752 mmHg 54%
    15:00 +28°C° 0,4 mm 1 m/S 751 mmHg 57%
    16:00 +27°C° 0,4 mm 1 m/S 751 mmHg 62%
    17:00 +26°C° 0,4 mm 1 m/S 751 mmHg 67%
    18:00 +25°C° 0,4 mm 1 m/S 750 mmHg 72%
    19:00 +24°C° 0,1 mm 1 m/S 750 mmHg 76%
    20:00 +21°C° 0,1 mm 2 m/S 750 mmHg 79%
    21:00 +20°C° 0,1 mm 2 m/S 750 mmHg 83%
    22:00 +20°C° 0 mm 2 m/S 750 mmHg 85%
    23:00 +19°C° 0 mm 2 m/S 750 mmHg 87%
    Mehr zeigen